Погода в Карджине

Россия / Республика Северная Осетия — Алания     43°15′57″N   44°17′31″E
В апреле 2022 года жителям России запретили посещать сайт meteo.paraplan.net по решению Генеральной прокуратуры. Аудитория сайта уменьшилась в 10 раз. Владельцы сайта не видят смысла в поддержке погодного сервера в таких условиях. Сайт будет закрыт в октябре.
темп.,
°C
ветер,
м/с
пор.,
м/с
влажн.,
%
обл.,
%
осадки,
мм/ч
давл.,
гПа
погр.,
м
4 октября, вт
вт400:00+14всв008998 0.0 101421
03:00+13вюв229295 0.4 101422
06:00+12юв119247 0.0 101411
09:00+17ссз32718 0.0 1014522
12:00+22ссв22518 0.0 1013897
15:00+25ссз32435 0.0 10131217
18:00+19ссз48615 0.0 1016169
21:00+16з227252 0.0 101832
5 октября, ср
ср500:00+17зсз1169100 0.0 101956
03:00+15зсз11805 0.0 101911
06:00+13сз22897 0.0 102018
09:00+18ссз227445 0.0 1020548
12:00+19с337020 0.0 1021681
15:00+19ссз5567100 0.1 1022848
18:00+14сз4789100 0.7 1025586
21:00+14сз2487100 1.1 1025396
6 октября, чт
чт600:00+13сз2386100 0.1 1026353
03:00+13ссз1287100 0.1 1026309
06:00+13ссз1188100 0.0 1026173
09:00+13ссз1186100 0.1 1026305
12:00+14с1283100 0.0 1025486
15:00+14ссз1183100 0.2 1025459
18:00+14юв0189100 0.3 102566
21:00+14вюв1189100 0.3 102671
7 октября, пт
пт700:00+13в1189100 0.0 102544
03:00+13зюз0090100 0.1 102530
06:00+13св0191100 0.1 102537
09:00+14всв1287100 0.1 1025332
12:00+15всв2379100 0.0 1024692
15:00+17вюв1369100 0.1 1022728
18:00+16юв1277100 0.1 102362
21:00+15в117892 0.1 102336
8 октября, сб
сб800:00+13в128331 0.0 102239
03:00+11в11911 0.0 102212
06:00+10в119412 0.0 102210
09:00+14св227792 0.0 1022456
12:00+16св2272100 0.0 1020806
15:00+16всв1268100 0.1 1019795
18:00+16зюз227496 0.0 101940
21:00+14всв247956 0.0 1018172